Regional Weather Roundup
Issued by NWS

Home | Current Version | Previous Version | Text Only | Print | Product List | Glossary On
Versions: 1 2 3 4 5 6 7 8 9 10 11 12 13 14 15 16 17 18 19 20 21 22 23 24 25 26 27 28 29 30 31 32 33 34 35 36 37 38 39 40 41 42 43 44 45 46 47 48 49 50
000
ASUS46 KPQR 231410
RWROR

OREGON REGIONAL WEATHER ROUNDUP
NATIONAL WEATHER SERVICE PORTLAND OR
700 AM PDT WED JUL 23 2014

NOTE: "FAIR" INDICATES FEW OR NO CLOUDS BELOW 12,000 FEET WITH
NO SIGNIFICANT WEATHER AND/OR OBSTRUCTIONS TO VISIBILITY.

ORZ001>013-231500-
NORTHWEST OREGON


CITY           SKY/WX    TMP DP  RH WIND       PRES   REMARKS
ASTORIA        CLOUDY    58  56  93 S10       29.99S
NEWPORT        DRIZZLE   55  54  94 S14G20    30.08S
PORTLAND       LGT RAIN  63  52  67 S8        30.03R
VANCOUVER WA   LGT RAIN  62  52  69 VRB5      30.02R
SCAPPOOSE      LGT RAIN  61  59  93 CALM      30.01R FOG
HILLSBORO      LGT RAIN  60  54  80 S6        30.03R
AURORA         CLOUDY    60  51  72 S9        30.05R
MCMINNVILLE    RAIN      59  56  89 CALM      30.04S FOG
SALEM          LGT RAIN  59  53  80 S8        30.04S FOG
CORVALLIS        N/A     57  54  88 CALM      30.07R
EUGENE         LGT RAIN  59  52  77 S6        30.07S
$$

ORZ021-028-231500-
SOUTHWEST OREGON


CITY           SKY/WX    TMP DP  RH WIND       PRES   REMARKS
NORTH BEND     CLOUDY    57  57 100 S6        30.10S
BROOKINGS      LGT RAIN  57  56  97 CALM      30.13S FOG
ROSEBURG       CLOUDY    63  50  62 N5        30.07S
SEXTON SUMMIT  CLOUDY    50  47  89 VRB6      30.13R
MEDFORD        CLOUDY    64  52  64 NW12      30.06R
$$

ORZ009-041-231500-
COLUMBIA GORGE


CITY           SKY/WX    TMP DP  RH WIND       PRES   REMARKS
TROUTDALE      CLOUDY    63  51  65 SE6       30.01F
THE DALLES     HVY RAIN  64  59  83 W8G24     29.98R
$$

ORZ029>031-042>050-061>064-231500-
EASTERN OREGON


CITY           SKY/WX    TMP DP  RH WIND       PRES   REMARKS
REDMOND        CLOUDY    54  51  90 CALM      30.04R
BEND           CLOUDY    54  52  94 NW3       30.05F
KLAMATH FALLS  PTSUNNY   57  46  66 S9        30.10S
LAKEVIEW       SUNNY     46  41  81 CALM      30.16F
HERMISTON      MOSUNNY   65  59  81 SW5       29.92S
PENDLETON      MOSUNNY   65  58  78 NW6       29.95R
JOHN DAY       SUNNY     57  52  81 E9        30.07F
MEACHAM        SUNNY     58  56  93 CALM      30.05F
LA GRANDE      SUNNY     57  46  67 E3        30.05F
BAKER CITY     SUNNY     54  52  93 CALM      30.09S
BURNS          SUNNY     54  46  74 CALM      30.13S
ROME             N/A     63  48  58 SE7       30.12S
ONTARIO        SUNNY     64  56  75 W8        30.05R
$$



USA.gov is the U.S. government's official web portal to all federal, state and local government web resources and services.